Time,TemperatureF,DewpointF,PressureIn,WindDirection,WindDirectionDegrees,WindSpeedMPH,WindSpeedGustMPH,Humidity,HourlyPrecipIn,Conditions,Clouds,dailyrainin,SoftwareType,DateUTC
2013-03-28 00:02:00,31.0,26.0,-100.00,East,85,2.0,3.0,83,0.00,,,-99.99,,2013-03-28 05:02:00,
2013-03-28 00:12:00,31.0,26.0,-100.00,East,85,3.0,4.0,84,0.00,,,-99.99,,2013-03-28 05:12:00,
2013-03-28 00:22:00,30.0,26.0,-100.00,East,85,2.0,4.0,85,0.00,,,-99.99,,2013-03-28 05:22:00,
2013-03-28 00:32:00,30.0,27.0,-100.00,East,85,2.0,3.0,87,0.00,,,-99.99,,2013-03-28 05:32:00,
2013-03-28 00:42:00,30.0,27.0,-100.00,East,85,2.0,3.0,87,0.00,,,-99.99,,2013-03-28 05:42:00,
2013-03-28 00:52:00,30.0,27.0,-100.00,East,95,4.0,4.0,88,0.00,,,-99.99,,2013-03-28 05:52:00,
2013-03-28 01:02:00,30.0,27.0,-100.00,East,95,4.0,4.0,88,0.00,,,-99.99,,2013-03-28 06:02:00,
2013-03-28 01:12:00,31.0,28.0,-100.00,East,95,4.0,5.0,87,0.00,,,-99.99,,2013-03-28 06:12:00,
2013-03-28 01:22:00,31.0,28.0,-100.00,ESE,110,2.0,4.0,87,0.00,,,-99.99,,2013-03-28 06:22:00,
2013-03-28 01:32:00,30.0,27.0,-100.00,ESE,105,2.0,3.0,88,0.00,,,-99.99,,2013-03-28 06:32:00,
2013-03-28 01:42:00,30.0,27.0,-100.00,ESE,105,2.0,3.0,88,0.00,,,-99.99,,2013-03-28 06:42:00,
2013-03-28 01:52:00,29.0,27.0,-100.00,East,85,1.0,4.0,89,0.00,,,-99.99,,2013-03-28 06:52:00,
2013-03-28 02:02:00,29.0,27.0,-100.00,East,85,1.0,4.0,89,0.00,,,-99.99,,2013-03-28 07:02:00,
2013-03-28 02:12:00,29.0,26.0,-100.00,East,95,4.0,4.0,90,0.00,,,-99.99,,2013-03-28 07:12:00,
2013-03-28 02:22:00,29.0,27.0,-100.00,ESE,105,1.0,4.0,90,0.00,,,-99.99,,2013-03-28 07:22:00,
2013-03-28 02:32:00,29.0,27.0,-100.00,East,85,2.0,4.0,91,0.00,,,-99.99,,2013-03-28 07:32:00,
2013-03-28 02:42:00,29.0,27.0,-100.00,East,85,2.0,4.0,91,0.00,,,-99.99,,2013-03-28 07:42:00,
2013-03-28 02:52:00,29.0,27.0,-100.00,East,90,3.0,3.0,91,0.00,,,-99.99,,2013-03-28 07:52:00,
2013-03-28 03:02:00,29.0,27.0,-100.00,East,90,3.0,3.0,91,0.00,,,-99.99,,2013-03-28 08:02:00,
2013-03-28 03:12:00,29.0,27.0,-100.00,East,85,1.0,4.0,92,0.00,,,-99.99,,2013-03-28 08:12:00,
2013-03-28 03:21:00,29.0,27.0,-100.00,East,95,3.0,4.0,92,0.00,,,-99.99,,2013-03-28 08:21:00,
2013-03-28 03:32:00,29.0,27.0,-100.00,East,100,3.0,4.0,92,0.00,,,-99.99,,2013-03-28 08:32:00,
2013-03-28 03:42:00,28.0,27.0,-100.00,East,95,2.0,4.0,92,0.00,,,-99.99,,2013-03-28 08:42:00,
2013-03-28 03:52:00,27.0,26.0,-100.00,SE,135,2.0,3.0,93,0.00,,,-99.99,,2013-03-28 08:52:00,
2013-03-28 04:02:00,27.0,26.0,-100.00,SE,135,2.0,3.0,93,0.00,,,-99.99,,2013-03-28 09:02:00,
2013-03-28 04:12:00,27.0,26.0,-100.00,SE,130,1.0,2.0,93,0.00,,,-99.99,,2013-03-28 09:12:00,
2013-03-28 04:22:00,27.0,26.0,-100.00,East,90,1.0,2.0,94,0.00,,,-99.99,,2013-03-28 09:22:00,
2013-03-28 04:32:00,27.0,26.0,-100.00,East,80,1.0,2.0,95,0.00,,,-99.99,,2013-03-28 09:32:00,
2013-03-28 04:42:00,27.0,26.0,-100.00,East,80,1.0,2.0,95,0.00,,,-99.99,,2013-03-28 09:42:00,
2013-03-28 04:52:00,27.0,26.0,-100.00,East,90,2.0,3.0,95,0.00,,,-99.99,,2013-03-28 09:52:00,
2013-03-28 05:03:00,27.0,26.0,-100.00,East,90,2.0,3.0,95,0.00,,,-99.99,,2013-03-28 10:03:00,
2013-03-28 05:12:00,27.0,26.0,-100.00,East,95,3.0,4.0,96,0.00,,,-99.99,,2013-03-28 10:12:00,
2013-03-28 05:22:00,28.0,27.0,-100.00,East,95,4.0,5.0,96,0.00,,,-99.99,,2013-03-28 10:22:00,
2013-03-28 05:33:00,28.0,27.0,-100.00,East,100,4.0,5.0,96,0.00,,,-99.99,,2013-03-28 10:33:00,
2013-03-28 05:42:00,28.0,27.0,-100.00,East,100,4.0,5.0,96,0.00,,,-99.99,,2013-03-28 10:42:00,
2013-03-28 05:52:00,28.0,27.0,-100.00,ESE,110,2.0,3.0,95,0.00,,,-99.99,,2013-03-28 10:52:00,
2013-03-28 06:02:00,28.0,27.0,-100.00,ESE,110,2.0,3.0,95,0.00,,,-99.99,,2013-03-28 11:02:00,
2013-03-28 06:12:00,28.0,27.0,-100.00,East,95,2.0,2.0,95,0.00,,,-99.99,,2013-03-28 11:12:00,
2013-03-28 06:22:00,28.0,27.0,-100.00,ESE,105,2.0,3.0,96,0.00,,,-99.99,,2013-03-28 11:22:00,
2013-03-28 06:32:00,27.0,27.0,-100.00,ESE,115,2.0,3.0,96,0.00,,,-99.99,,2013-03-28 11:32:00,
2013-03-28 06:42:00,27.0,27.0,-100.00,ESE,115,2.0,3.0,96,0.00,,,-99.99,,2013-03-28 11:42:00,
2013-03-28 06:52:00,28.0,27.0,-100.00,ESE,105,3.0,3.0,95,0.00,,,-99.99,,2013-03-28 11:52:00,
2013-03-28 07:02:00,28.0,27.0,-100.00,ESE,105,3.0,3.0,95,0.00,,,-99.99,,2013-03-28 12:02:00,
2013-03-28 07:12:00,27.0,26.0,-100.00,East,100,3.0,4.0,95,0.00,,,-99.99,,2013-03-28 12:12:00,
2013-03-28 07:22:00,28.0,27.0,-100.00,East,100,4.0,4.0,95,0.00,,,-99.99,,2013-03-28 12:22:00,
2013-03-28 07:32:00,28.0,27.0,-100.00,East,100,3.0,4.0,94,0.00,,,-99.99,,2013-03-28 12:32:00,
2013-03-28 07:42:00,28.0,27.0,-100.00,East,100,3.0,4.0,94,0.00,,,-99.99,,2013-03-28 12:42:00,
2013-03-28 07:52:00,29.0,27.0,-100.00,East,100,2.0,4.0,92,0.00,,,-99.99,,2013-03-28 12:52:00,
2013-03-28 08:02:00,29.0,27.0,-100.00,East,100,2.0,4.0,92,0.00,,,-99.99,,2013-03-28 13:02:00,
2013-03-28 08:12:00,30.0,28.0,-100.00,ESE,105,2.0,4.0,92,0.00,,,-99.99,,2013-03-28 13:12:00,
2013-03-28 08:22:00,31.0,28.0,-100.00,ESE,115,2.0,3.0,90,0.00,,,-99.99,,2013-03-28 13:22:00,
2013-03-28 08:32:00,33.0,29.0,-100.00,SE,130,2.0,4.0,88,0.00,,,-99.99,,2013-03-28 13:32:00,
2013-03-28 08:41:00,33.0,29.0,-100.00,SE,130,2.0,4.0,88,0.00,,,-99.99,,2013-03-28 13:41:00,
2013-03-28 08:52:00,34.0,30.0,-100.00,ESE,110,3.0,6.0,85,0.00,,,-99.99,,2013-03-28 13:52:00,
2013-03-28 09:02:00,34.0,30.0,-100.00,ESE,110,3.0,6.0,85,0.00,,,-99.99,,2013-03-28 14:02:00,
2013-03-28 09:12:00,35.0,30.0,-100.00,SE,125,6.0,7.0,83,0.00,,,-99.99,,2013-03-28 14:12:00,
2013-03-28 09:22:00,36.0,30.0,-100.00,SE,125,6.0,7.0,80,0.00,,,-99.99,,2013-03-28 14:22:00,
2013-03-28 09:32:00,37.0,30.0,-100.00,SE,130,6.0,8.0,74,0.00,,,-99.99,,2013-03-28 14:32:00,
2013-03-28 09:42:00,37.0,30.0,-100.00,SE,130,6.0,8.0,74,0.00,,,-99.99,,2013-03-28 14:42:00,
2013-03-28 09:51:00,40.0,30.0,-100.00,SE,130,7.0,10.0,67,0.00,,,-99.99,,2013-03-28 14:51:00,
2013-03-28 10:02:00,40.0,30.0,-100.00,SE,130,7.0,10.0,67,0.00,,,-99.99,,2013-03-28 15:02:00,
2013-03-28 10:12:00,40.0,29.0,-100.00,SE,130,7.0,12.0,64,0.00,,,-99.99,,2013-03-28 15:12:00,
2013-03-28 10:21:00,41.0,29.0,-100.00,ESE,110,8.0,9.0,63,0.00,,,-99.99,,2013-03-28 15:21:00,
2013-03-28 10:33:00,42.0,29.0,-100.00,ESE,115,7.0,11.0,58,0.00,,,-99.99,,2013-03-28 15:33:00,
2013-03-28 10:43:00,42.0,29.0,-100.00,ESE,115,7.0,11.0,58,0.00,,,-99.99,,2013-03-28 15:43:00,
2013-03-28 10:52:00,43.0,27.0,-100.00,ESE,105,9.0,11.0,54,0.00,,,-99.99,,2013-03-28 15:52:00,
2013-03-28 11:02:00,43.0,27.0,-100.00,ESE,105,9.0,11.0,54,0.00,,,-99.99,,2013-03-28 16:02:00,
2013-03-28 11:12:00,44.0,28.0,-100.00,ESE,110,7.0,11.0,53,0.00,,,-99.99,,2013-03-28 16:12:00,
2013-03-28 11:23:00,45.0,28.0,-100.00,ESE,110,7.0,12.0,52,0.00,,,-99.99,,2013-03-28 16:23:00,
2013-03-28 11:32:00,45.0,29.0,-100.00,ESE,120,7.0,11.0,51,0.00,,,-99.99,,2013-03-28 16:32:00,
2013-03-28 11:42:00,45.0,29.0,-100.00,ESE,120,7.0,11.0,51,0.00,,,-99.99,,2013-03-28 16:42:00,
2013-03-28 11:52:00,47.0,30.0,-100.00,ESE,120,7.0,11.0,51,0.00,,,-99.99,,2013-03-28 16:52:00,
2013-03-28 12:02:00,47.0,30.0,-100.00,ESE,120,7.0,11.0,51,0.00,,,-99.99,,2013-03-28 17:02:00,
2013-03-28 12:12:00,46.0,29.0,-100.00,ESE,110,9.0,11.0,50,0.00,,,-99.99,,2013-03-28 17:12:00,
2013-03-28 12:22:00,47.0,29.0,-100.00,ESE,115,9.0,12.0,49,0.00,,,-99.99,,2013-03-28 17:22:00,
2013-03-28 12:32:00,48.0,29.0,-100.00,ESE,115,9.0,12.0,47,0.00,,,-99.99,,2013-03-28 17:32:00,
2013-03-28 12:42:00,48.0,29.0,-100.00,ESE,115,9.0,12.0,47,0.00,,,-99.99,,2013-03-28 17:42:00,
2013-03-28 12:52:00,50.0,30.0,-100.00,SE,135,6.0,11.0,45,0.00,,,-99.99,,2013-03-28 17:52:00,
2013-03-28 13:02:00,50.0,30.0,-100.00,SE,135,6.0,11.0,45,0.00,,,-99.99,,2013-03-28 18:02:00,
2013-03-28 13:12:00,49.0,30.0,-100.00,ESE,105,7.0,9.0,46,0.00,,,-99.99,,2013-03-28 18:12:00,
2013-03-28 13:22:00,50.0,30.0,-100.00,East,85,6.0,9.0,45,0.00,,,-99.99,,2013-03-28 18:22:00,
2013-03-28 13:32:00,51.0,30.0,-100.00,East,95,6.0,11.0,45,0.00,,,-99.99,,2013-03-28 18:32:00,
2013-03-28 13:42:00,51.0,30.0,-100.00,East,95,6.0,11.0,45,0.00,,,-99.99,,2013-03-28 18:42:00,
2013-03-28 13:52:00,51.0,31.0,-100.00,SE,130,9.0,10.0,44,0.00,,,-99.99,,2013-03-28 18:52:00,
2013-03-28 14:02:00,51.0,31.0,-100.00,SE,130,9.0,10.0,44,0.00,,,-99.99,,2013-03-28 19:02:00,
2013-03-28 14:12:00,51.0,31.0,-100.00,SE,125,7.0,11.0,44,0.00,,,-99.99,,2013-03-28 19:12:00,
2013-03-28 14:22:00,52.0,31.0,-100.00,ESE,115,7.0,11.0,44,0.00,,,-99.99,,2013-03-28 19:22:00,
2013-03-28 14:33:00,53.0,32.0,-100.00,SSE,150,7.0,10.0,44,0.00,,,-99.99,,2013-03-28 19:33:00,
2013-03-28 14:42:00,53.0,32.0,-100.00,SSE,150,7.0,10.0,44,0.00,,,-99.99,,2013-03-28 19:42:00,
2013-03-28 14:52:00,54.0,33.0,-100.00,SE,135,7.0,9.0,43,0.00,,,-99.99,,2013-03-28 19:52:00,
2013-03-28 15:03:00,54.0,33.0,-100.00,SE,135,7.0,9.0,43,0.00,,,-99.99,,2013-03-28 20:03:00,
2013-03-28 15:12:00,54.0,33.0,-100.00,ESE,105,7.0,11.0,43,0.00,,,-99.99,,2013-03-28 20:12:00,
2013-03-28 15:22:00,54.0,32.0,-100.00,ESE,110,7.0,9.0,43,0.00,,,-99.99,,2013-03-28 20:22:00,
2013-03-28 15:32:00,54.0,32.0,-100.00,SE,125,6.0,10.0,42,0.00,,,-99.99,,2013-03-28 20:32:00,
2013-03-28 15:42:00,54.0,32.0,-100.00,SE,125,6.0,10.0,42,0.00,,,-99.99,,2013-03-28 20:42:00,
2013-03-28 15:52:00,54.0,31.0,-100.00,ESE,105,6.0,9.0,41,0.00,,,-99.99,,2013-03-28 20:52:00,
2013-03-28 16:02:00,54.0,31.0,-100.00,ESE,105,6.0,9.0,41,0.00,,,-99.99,,2013-03-28 21:02:00,
2013-03-28 16:12:00,54.0,32.0,-100.00,ESE,120,7.0,9.0,42,0.00,,,-99.99,,2013-03-28 21:12:00,
2013-03-28 16:22:00,55.0,32.0,-100.00,SE,135,6.0,9.0,41,0.00,,,-99.99,,2013-03-28 21:22:00,
2013-03-28 16:32:00,55.0,32.0,-100.00,ESE,120,7.0,9.0,41,0.00,,,-99.99,,2013-03-28 21:32:00,
2013-03-28 16:42:00,55.0,32.0,-100.00,ESE,120,7.0,9.0,41,0.00,,,-99.99,,2013-03-28 21:42:00,
2013-03-28 16:53:00,55.0,32.0,-100.00,ESE,110,7.0,11.0,41,0.00,,,-99.99,,2013-03-28 21:53:00,
2013-03-28 17:02:00,55.0,32.0,-100.00,ESE,110,7.0,11.0,41,0.00,,,-99.99,,2013-03-28 22:02:00,
2013-03-28 17:12:00,55.0,31.0,-100.00,ESE,110,6.0,8.0,40,0.00,,,-99.99,,2013-03-28 22:12:00,
2013-03-28 17:22:00,54.0,31.0,-100.00,ESE,110,7.0,9.0,41,0.00,,,-99.99,,2013-03-28 22:22:00,
2013-03-28 17:32:00,54.0,32.0,-100.00,East,100,6.0,9.0,42,0.00,,,-99.99,,2013-03-28 22:32:00,
2013-03-28 17:42:00,54.0,32.0,-100.00,East,100,6.0,9.0,42,0.00,,,-99.99,,2013-03-28 22:42:00,
2013-03-28 17:52:00,54.0,31.0,-100.00,East,90,5.0,8.0,41,0.00,,,-99.99,,2013-03-28 22:52:00,
2013-03-28 18:02:00,54.0,31.0,-100.00,East,90,5.0,8.0,41,0.00,,,-99.99,,2013-03-28 23:02:00,
2013-03-28 18:12:00,54.0,32.0,-100.00,ESE,105,5.0,8.0,42,0.00,,,-99.99,,2013-03-28 23:12:00,
2013-03-28 18:22:00,53.0,31.0,-100.00,East,100,4.0,8.0,42,0.00,,,-99.99,,2013-03-28 23:22:00,
2013-03-28 18:32:00,53.0,32.0,-100.00,East,90,4.0,6.0,44,0.00,,,-99.99,,2013-03-28 23:32:00,
2013-03-28 18:42:00,53.0,32.0,-100.00,East,90,4.0,6.0,44,0.00,,,-99.99,,2013-03-28 23:42:00,
2013-03-28 18:52:00,52.0,32.0,-100.00,ESE,105,6.0,7.0,45,0.00,,,-99.99,,2013-03-28 23:52:00,
2013-03-28 19:02:00,52.0,32.0,-100.00,ESE,105,6.0,7.0,45,0.00,,,-99.99,,2013-03-29 00:02:00,
2013-03-28 19:12:00,51.0,32.0,-100.00,East,95,4.0,6.0,47,0.00,,,-99.99,,2013-03-29 00:12:00,
2013-03-28 19:22:00,51.0,32.0,-100.00,East,100,4.0,6.0,48,0.00,,,-99.99,,2013-03-29 00:22:00,
2013-03-28 19:32:00,49.0,32.0,-100.00,East,100,4.0,6.0,52,0.00,,,-99.99,,2013-03-29 00:32:00,
2013-03-28 19:42:00,49.0,32.0,-100.00,East,100,4.0,6.0,52,0.00,,,-99.99,,2013-03-29 00:42:00,
2013-03-28 19:52:00,48.0,32.0,-100.00,ESE,105,4.0,6.0,54,0.00,,,-99.99,,2013-03-29 00:52:00,
2013-03-28 20:02:00,48.0,32.0,-100.00,ESE,105,4.0,6.0,54,0.00,,,-99.99,,2013-03-29 01:02:00,
2013-03-28 20:12:00,47.0,32.0,-100.00,ESE,105,6.0,6.0,54,0.00,,,-99.99,,2013-03-29 01:12:00,
2013-03-28 20:22:00,47.0,31.0,-100.00,East,100,6.0,6.0,54,0.00,,,-99.99,,2013-03-29 01:22:00,
2013-03-28 20:32:00,45.0,31.0,-100.00,East,100,4.0,6.0,56,0.00,,,-99.99,,2013-03-29 01:32:00,
2013-03-28 20:42:00,45.0,31.0,-100.00,East,100,4.0,6.0,56,0.00,,,-99.99,,2013-03-29 01:42:00,
2013-03-28 20:52:00,44.0,31.0,-100.00,East,100,4.0,6.0,60,0.00,,,-99.99,,2013-03-29 01:52:00,
2013-03-28 21:02:00,44.0,31.0,-100.00,East,100,4.0,6.0,60,0.00,,,-99.99,,2013-03-29 02:02:00,
2013-03-28 21:12:00,44.0,31.0,-100.00,East,100,4.0,6.0,61,0.00,,,-99.99,,2013-03-29 02:12:00,
2013-03-28 21:22:00,44.0,32.0,-100.00,ESE,105,4.0,6.0,62,0.00,,,-99.99,,2013-03-29 02:22:00,
2013-03-28 21:32:00,42.0,32.0,-100.00,ENE,75,3.0,4.0,66,0.00,,,-99.99,,2013-03-29 02:32:00,
2013-03-28 21:42:00,42.0,32.0,-100.00,ENE,75,3.0,4.0,66,0.00,,,-99.99,,2013-03-29 02:42:00,
2013-03-28 21:52:00,40.0,31.0,-100.00,East,85,3.0,4.0,72,0.00,,,-99.99,,2013-03-29 02:52:00,
2013-03-28 22:02:00,40.0,31.0,-100.00,East,85,3.0,4.0,72,0.00,,,-99.99,,2013-03-29 03:02:00,
2013-03-28 22:12:00,40.0,32.0,-100.00,ENE,75,3.0,4.0,73,0.00,,,-99.99,,2013-03-29 03:12:00,
2013-03-28 22:22:00,40.0,33.0,-100.00,ENE,75,3.0,4.0,74,0.00,,,-99.99,,2013-03-29 03:22:00,
2013-03-28 22:32:00,39.0,33.0,-100.00,ENE,75,4.0,4.0,78,0.00,,,-99.99,,2013-03-29 03:32:00,
2013-03-28 22:42:00,39.0,33.0,-100.00,ENE,75,4.0,4.0,78,0.00,,,-99.99,,2013-03-29 03:42:00,
2013-03-28 22:52:00,39.0,33.0,-100.00,East,95,3.0,4.0,80,0.00,,,-99.99,,2013-03-29 03:52:00,
2013-03-28 23:03:00,39.0,33.0,-100.00,East,95,3.0,4.0,80,0.00,,,-99.99,,2013-03-29 04:03:00,
2013-03-28 23:12:00,38.0,33.0,-100.00,East,90,4.0,4.0,80,0.00,,,-99.99,,2013-03-29 04:12:00,
2013-03-28 23:22:00,38.0,33.0,-100.00,East,100,3.0,4.0,81,0.00,,,-99.99,,2013-03-29 04:22:00,
2013-03-28 23:33:00,37.0,32.0,-100.00,ESE,120,4.0,4.0,83,0.00,,,-99.99,,2013-03-29 04:33:00,
2013-03-28 23:42:00,37.0,32.0,-100.00,ESE,120,4.0,4.0,83,0.00,,,-99.99,,2013-03-29 04:42:00,
2013-03-28 23:52:00,36.0,33.0,-100.00,SE,125,4.0,5.0,85,0.00,,,-99.99,,2013-03-29 04:52:00,